Latest Coastal Weather Observations for Bougainville Reef

IDQ60701

Issued at 12:51 am EST Saturday 29 August 2015 (issued every 10 minutes, with the page automatically refreshed every 10 minutes)

About coastal observations | Map of coastal stations | Coastal observations for QLD | Marine services | Other Formats
Station Details ID: 200840 Name: BOUGAINVILLE REEF Lat: -15.49 Lon: 147.12 Height: 0.0 m
Data from the previous 72 hours. | See also: Recent months for locations in Queensland
Date/Time
EST
Temp

°C
Wind Pressure Rain
since 9am
mm
Weather Cloud Vis
km
Sea
Height
m
Swell
Dir
 
Speed
knots
Gust
knots
hPa Trend Height
m
Period
s
Dir
29/12:30am 24.2 ESE 17 19 1017.3 - - - - - - - - -
29/12:00am 24.3 ESE 17 19 1017.6 - - - - - - - - -
 
Date/Time
EST
Temp

°C
Wind Pressure Rain
since 9am
mm
Weather Cloud Vis
km
Sea
Height
m
Swell
Dir
 
Speed
knots
Gust
knots
hPa Trend Height
m
Period
s
Dir
28/11:30pm 24.3 ESE 18 20 1018.0 - - - - - - - - -
28/11:00pm 24.5 ESE 17 20 1018.0 - - - - - - - - -
28/10:30pm 24.3 ESE 17 19 1018.2 - - - - - - - - -
28/10:00pm 24.4 ESE 16 20 1018.1 - - - - - - - - -
28/09:30pm 24.4 ESE 18 20 1018.1 - - - - - - - - -
28/09:00pm 24.4 ESE 16 20 1017.7 - - - - - - - - -
28/08:30pm 24.4 SE 18 20 1017.6 - - - - - - - - -
28/08:00pm 24.4 SE 17 19 1017.1 - - - - - - - - -
28/07:30pm 24.4 SE 17 19 1017.0 - - - - - - - - -
28/07:00pm 24.6 SE 17 19 1016.2 - - - - - - - - -
28/06:30pm 24.3 SE 17 19 1016.1 - - - - - - - - -
28/06:00pm 24.4 SE 17 19 1015.5 - - - - - - - - -
28/05:30pm 24.4 SE 17 19 1015.3 - - - - - - - - -
28/05:00pm 24.5 SE 17 18 1014.9 - - - - - - - - -
28/04:30pm 24.5 SE 17 19 1015.0 - - - - - - - - -
28/04:00pm 24.3 SE 17 20 1014.8 - - - - - - - - -
28/03:30pm 24.5 SE 17 19 1014.8 - - - - - - - - -
28/03:00pm 24.4 SE 17 19 1014.9 - - - - - - - - -
28/02:30pm 24.5 SE 18 20 1015.2 - - - - - - - - -
28/02:00pm 24.4 SE 17 21 1015.5 - - - - - - - - -
28/01:30pm 24.5 SE 18 20 1015.8 - - - - - - - - -
28/01:00pm 24.4 SE 18 21 1016.3 - - - - - - - - -
28/12:30pm 24.3 SE 19 22 1016.6 - - - - - - - - -
28/12:00pm 24.3 SE 20 21 1016.9 - - - - - - - - -
28/11:30am 24.4 SE 20 23 1017.4 - - - - - - - - -
28/11:00am 24.4 SE 19 22 1017.9 - - - - - - - - -
28/10:30am 24.4 SE 20 24 1018.1 - - - - - - - - -
28/10:00am 24.4 SE 22 23 1017.9 - - - - - - - - -
28/09:30am 24.5 SE 20 22 1018.1 - - - - - - - - -
28/09:00am 24.3 SE 19 23 1018.1 - - - - - - - - -
28/08:30am 24.5 SE 20 22 1018.0 - - - - - - - - -
28/08:00am 24.3 SE 19 22 1017.7 - - - - - - - - -
28/07:30am 24.2 SE 19 22 1017.5 - - - - - - - - -
28/07:00am 24.2 SE 20 22 1016.8 - - - - - - - - -
28/06:30am 24.2 SE 19 22 1016.7 - - - - - - - - -
28/06:00am 24.2 SE 19 21 1016.2 - - - - - - - - -
28/05:30am 24.1 SE 19 22 1016.0 - - - - - - - - -
28/05:00am 24.2 SE 20 21 1015.5 - - - - - - - - -
28/04:30am 24.1 SE 21 23 1015.5 - - - - - - - - -
28/04:00am 24.0 SE 20 24 1015.4 - - - - - - - - -
28/03:30am 24.0 SE 19 22 1015.5 - - - - - - - - -
28/03:00am 23.9 SE 18 21 1015.6 - - - - - - - - -
28/02:30am 24.1 SE 18 20 1015.8 - - - - - - - - -
28/02:00am 24.0 SE 19 22 1016.3 - - - - - - - - -
28/01:30am 24.1 SE 19 22 1016.5 - - - - - - - - -
28/01:00am 24.3 SE 20 21 1017.0 - - - - - - - - -
28/12:30am 24.2 ESE 19 22 1017.3 - - - - - - - - -
28/12:00am 24.4 ESE 19 22 1017.5 - - - - - - - - -
 
Date/Time
EST
Temp

°C
Wind Pressure Rain
since 9am
mm
Weather Cloud Vis
km
Sea
Height
m
Swell
Dir
 
Speed
knots
Gust
knots
hPa Trend Height
m
Period
s
Dir
27/11:30pm 24.4 SE 19 23 1017.7 - - - - - - - - -
27/11:00pm 24.3 SE 19 22 1017.6 - - - - - - - - -
27/10:30pm 24.4 ESE 19 22 1017.8 - - - - - - - - -
27/10:00pm 24.5 SE 18 22 1017.9 - - - - - - - - -
27/09:30pm 24.4 SE 19 22 1018.0 - - - - - - - - -
27/09:00pm 24.2 SE 19 21 1017.8 - - - - - - - - -
27/08:30pm 24.3 SE 19 23 1017.8 - - - - - - - - -
27/08:00pm 24.3 SE 20 21 1017.2 - - - - - - - - -
27/07:30pm 24.5 SE 19 21 1017.0 - - - - - - - - -
27/07:00pm 24.4 SE 17 22 1016.4 - - - - - - - - -
27/06:30pm 24.4 SE 19 22 1016.1 - - - - - - - - -
27/06:00pm 24.5 SE 18 19 1015.6 - - - - - - - - -
27/05:30pm 24.4 SE 18 21 1015.5 - - - - - - - - -
27/05:00pm 24.3 SE 17 22 1015.2 - - - - - - - - -
27/04:30pm 24.5 SE 17 20 1015.2 - - - - - - - - -
27/04:00pm 24.4 SE 17 20 1015.0 - - - - - - - - -
27/03:30pm 24.6 SE 17 20 1015.0 - - - - - - - - -
27/03:00pm 24.5 SE 18 22 1015.1 - - - - - - - - -
27/02:30pm 24.5 SE 18 21 1015.2 - - - - - - - - -
27/02:00pm 24.6 SE 19 22 1015.2 - - - - - - - - -
27/01:30pm 24.5 SE 20 24 1015.6 - - - - - - - - -
27/01:00pm 24.4 SE 19 21 1016.1 - - - - - - - - -
27/12:30pm 24.5 SE 21 24 1016.5 - - - - - - - - -
27/12:00pm 23.9 ESE 22 25 1017.0 - - - - - - - - -
27/11:30am 24.5 SE 21 23 1017.4 - - - - - - - - -
27/11:00am 24.1 SE 15 23 1017.8 - - - - - - - - -
27/10:30am 23.8 SE 15 17 1018.1 - - - - - - - - -
27/10:00am 24.0 SE 20 21 1018.3 - - - - - - - - -
27/09:30am 24.5 SE 22 26 1018.0 - - - - - - - - -
27/09:00am 24.3 SE 22 26 1017.8 - - - - - - - - -
27/08:30am 24.0 SE 18 21 1017.8 - - - - - - - - -
27/08:00am 23.7 SE 16 17 1017.4 - - - - - - - - -
27/07:36am 24.2 ESE 19 30 1017.3 - - - - - - - - -
27/07:30am 24.0 ESE 25 32 1017.2 - - - - - - - - -
27/07:24am 24.0 SE 24 32 1017.0 - - - - - - - - -
27/07:00am 24.3 SE 19 21 1016.6 - - - - - - - - -
27/06:30am 24.4 SE 20 23 1016.5 - - - - - - - - -
27/06:00am 24.1 SE 16 23 1015.9 - - - - - - - - -
27/05:30am 23.4 SE 19 25 1015.8 - - - - - - - - -
27/05:16am 23.7 SE 19 29 1015.7 - - - - - - - - -
27/05:00am 24.1 SE 20 23 1015.5 - - - - - - - - -
27/04:30am 24.0 SE 21 24 1015.5 - - - - - - - - -
27/04:00am 24.1 SE 22 25 1015.3 - - - - - - - - -
27/03:30am 24.1 SE 21 24 1015.4 - - - - - - - - -
27/03:00am 24.1 SE 19 25 1015.7 - - - - - - - - -
27/02:30am 23.9 SE 19 24 1015.9 - - - - - - - - -
27/02:00am 24.3 SE 20 23 1016.2 - - - - - - - - -
27/01:30am 24.2 SE 18 21 1016.5 - - - - - - - - -
27/01:00am 24.2 SE 18 21 1016.8 - - - - - - - - -
27/12:30am 24.2 SE 18 20 1017.1 - - - - - - - - -
27/12:00am 24.3 SE 17 19 1017.4 - - - - - - - - -
 
Date/Time
EST
Temp

°C
Wind Pressure Rain
since 9am
mm
Weather Cloud Vis
km
Sea
Height
m
Swell
Dir
 
Speed
knots
Gust
knots
hPa Trend Height
m
Period
s
Dir
26/11:30pm 24.3 SE 18 21 1017.6 - - - - - - - - -
26/11:00pm 24.2 SE 18 21 1017.7 - - - - - - - - -
26/10:30pm 24.3 SE 18 20 1017.9 - - - - - - - - -
26/10:00pm 24.2 ESE 17 20 1017.8 - - - - - - - - -
26/09:30pm 24.3 SE 17 20 1017.9 - - - - - - - - -
26/09:00pm 24.4 SE 17 20 1017.7 - - - - - - - - -
26/08:30pm 24.4 ESE 17 21 1017.7 - - - - - - - - -
26/08:00pm 24.4 SE 18 21 1017.2 - - - - - - - - -
26/07:30pm 24.3 ESE 19 21 1017.1 - - - - - - - - -
26/07:00pm 24.1 SSE 17 21 1016.6 - - - - - - - - -
26/06:30pm 24.2 SE 17 20 1016.5 - - - - - - - - -
26/06:00pm 24.1 SE 17 21 1016.1 - - - - - - - - -
26/05:30pm 24.3 SE 16 19 1016.1 - - - - - - - - -
26/05:00pm 24.1 SE 17 19 1015.9 - - - - - - - - -
26/04:30pm 24.0 SE 17 20 1015.9 - - - - - - - - -
26/04:00pm 24.1 SE 17 20 1015.7 - - - - - - - - -
26/03:30pm 24.2 SE 16 19 1015.8 - - - - - - - - -
26/03:00pm 24.0 SE 16 19 1015.6 - - - - - - - - -
26/02:30pm 24.0 SE 16 19 1015.9 - - - - - - - - -
26/02:00pm 24.0 SE 17 18 1016.2 - - - - - - - - -
26/01:30pm 24.0 SE 16 18 1016.6 - - - - - - - - -
26/01:00pm 24.1 SE 17 19 1017.1 - - - - - - - - -
26/12:30pm 24.0 SE 18 20 1017.3 - - - - - - - - -
26/12:00pm 24.0 SE 18 19 1017.5 - - - - - - - - -
26/11:30am 24.1 ESE 18 21 1017.9 - - - - - - - - -
26/11:00am 24.1 SE 18 21 1018.3 - - - - - - - - -
26/10:30am 24.2 SE 19 21 1018.6 - - - - - - - - -
26/10:00am 24.0 SE 19 22 1018.6 - - - - - - - - -
26/09:30am 24.2 SE 18 20 1018.8 - - - - - - - - -
26/09:00am 24.1 SE 19 21 1018.4 - - - - - - - - -
26/08:30am 24.1 SE 17 19 1018.4 - - - - - - - - -
26/08:00am 24.1 SE 18 21 1017.8 - - - - - - - - -
26/07:30am 24.0 SE 20 23 1017.7 - - - - - - - - -
26/07:00am 24.0 SE 20 22 1017.2 - - - - - - - - -
26/06:30am 23.8 SE 19 21 1017.1 - - - - - - - - -
26/06:00am 23.8 SE 19 21 1016.6 - - - - - - - - -
26/05:30am 23.8 SE 18 21 1016.5 - - - - - - - - -
26/05:00am 23.9 SE 17 20 1016.2 - - - - - - - - -
26/04:30am 23.9 SE 17 19 1016.3 - - - - - - - - -
26/04:00am 23.9 SE 16 19 1016.3 - - - - - - - - -
26/03:30am 23.8 SE 16 19 1016.6 - - - - - - - - -
26/03:00am 24.0 SE 16 17 1016.8 - - - - - - - - -
26/02:30am 23.9 SE 16 18 1017.0 - - - - - - - - -
26/02:00am 24.0 ESE 15 19 1017.3 - - - - - - - - -
26/01:30am 24.0 ESE 16 19 1017.4 - - - - - - - - -
26/01:00am 24.0 SE 15 18 1017.6 - - - - - - - - -

Other Formats:

Comma delimited format used in spreadsheet applications
http://www.bom.gov.au/fwo/IDQ60701/IDQ60701.95288.axf

JavaScript Object Notation format (JSON) in row-major order
http://www.bom.gov.au/fwo/IDQ60701/IDQ60701.95288.json